Date_and_time,latitude,longitude,wind_speed,RelWindDirFrom,WindDirFrom,air_pressure,air_temperature,relative_humidity,Temp,platform_speed_wrt_ground,air_pressure_at_mean_sea_level,platform_orientation
2019-10-19 23:40,50.6304366666667,-96.98076,7.4,9.2,155,974.25,6.5,99,6.85,0.0,1001.04,360.0
2019-10-19 23:50,50.630435,-96.9807616666667,7.3,8.1,167,974.27,6.5,100,6.84,0.0,1001.07,360.0
2019-10-20 00:00,50.63042,-96.980765,6.4,7.7,168,974.32,6.5,99,6.82,0.0,1001.13,142.0
2019-10-20 00:10,50.6304266666667,-96.980775,5.0,6.1,180,974.47,6.5,99,6.82,0.0,1001.28,142.0
2019-10-20 00:20,50.63043,-96.9807583333333,6.6,7.8,164,974.40,6.7,99,6.83,0.0,1001.21,142.0
2019-10-20 00:30,50.6304316666667,-96.9807583333333,7.7,9.9,142,974.19,6.8,98,6.83,0.0,1001.01,142.0
2019-10-20 00:40,50.6304333333333,-96.9807583333333,9.0,10.7,156,974.18,7.1,95,6.82,0.0,1000.98,142.0
2019-10-20 00:50,50.630435,-96.9807616666667,8.5,10.2,170,974.29,7.1,95,6.82,0.0,1001.09,142.0
2019-10-20 01:00,50.630435,-96.9807633333333,8.3,9.8,172,974.37,7.2,95,6.81,0.0,1001.15,38.0
2019-10-20 01:10,50.630435,-96.980765,7.8,9.9,177,974.44,7.2,95,6.81,0.0,1001.22,38.0
2019-10-20 01:20,50.630435,-96.980765,9.0,12.6,180,974.54,7.5,92,6.79,0.0,1001.33,38.0
2019-10-20 01:30,50.630435,-96.980765,10.7,13.4,178,974.50,7.8,88,6.79,0.0,1001.28,38.0
2019-10-20 01:40,50.630435,-96.980765,9.9,13.3,171,974.41,7.9,87,6.80,0.0,1001.18,38.0
2019-10-20 01:50,50.63045,-96.9807733333333,8.5,10.6,160,974.44,7.8,88,6.80,0.0,1001.21,38.0
2019-10-20 02:00,50.6304333333333,-96.9807733333333,5.5,8.9,180,974.74,7.9,88,6.80,0.0,1001.52,270.0
2019-10-20 02:10,50.630445,-96.9807616666667,5.8,8.2,185,974.78,8.1,86,6.79,0.0,1001.53,270.0
2019-10-20 02:20,50.6304416666667,-96.9807583333333,7.3,10.2,174,974.72,8.1,87,6.79,0.0,1001.47,270.0
2019-10-20 02:30,50.63044,-96.98076,8.3,11.5,180,974.73,8.0,87,6.79,0.0,1001.47,270.0
2019-10-20 02:40,50.6304383333333,-96.9807616666667,9.4,13.5,185,974.82,8.0,87,6.79,0.0,1001.56,270.0
2019-10-20 02:50,50.6304366666667,-96.9807616666667,9.2,13.0,195,975.04,8.0,87,6.78,0.0,1001.79,270.0
2019-10-20 03:00,50.630435,-96.9807616666667,7.7,11.0,199,975.17,7.8,88,6.78,0.0,1001.93,23.5
2019-10-20 03:10,50.6304083333333,-96.980795,7.2,9.9,196,975.22,7.7,89,6.77,0.0,1001.98,23.5
2019-10-20 03:20,50.6304316666667,-96.9807533333333,7.5,11.3,181,975.10,7.6,90,6.77,0.0,1001.84,23.5
2019-10-20 03:30,50.63044,-96.980775,8.3,11.3,181,975.02,7.5,90,6.78,0.0,1001.76,23.5
2019-10-20 03:40,50.6304366666667,-96.9807716666667,7.2,9.7,174,974.97,7.4,91,6.78,0.0,1001.72,23.5
2019-10-20 03:50,50.630435,-96.9807683333333,7.1,8.5,169,974.91,7.3,92,6.79,0.0,1001.66,23.5
2019-10-20 04:00,50.6304316666667,-96.9807683333333,7.8,9.1,158,974.78,7.1,93,6.78,0.0,1001.52,142.0
2019-10-20 04:10,50.6304333333333,-96.9807683333333,6.5,8.0,158,974.73,7.0,95,6.78,0.0,1001.47,142.0
2019-10-20 04:20,50.6304316666667,-96.9807683333333,5.3,6.5,161,974.75,6.8,98,6.79,0.0,1001.51,142.0
2019-10-20 04:30,50.6304716666667,-96.9807683333333,5.9,7.4,166,974.79,6.7,98,6.79,0.0,1001.56,142.0
2019-10-20 04:40,50.63043,-96.980785,6.6,8.2,157,974.80,6.7,98,6.80,0.0,1001.57,142.0
2019-10-20 04:50,50.63043,-96.9807716666667,6.1,7.7,158,974.84,6.5,99,6.80,0.0,1001.63,142.0
2019-10-20 05:00,50.63043,-96.98077,6.6,7.6,163,974.86,6.4,99,6.81,0.0,1001.66,167.4
2019-10-20 05:10,50.6304333333333,-96.980765,6.7,7.8,163,974.92,6.2,99,6.81,0.0,1001.74,167.4
2019-10-20 05:20,50.6304333333333,-96.9807633333333,6.8,7.5,165,974.99,6.0,99,6.81,0.0,1001.81,167.4
2019-10-20 05:30,50.630435,-96.9807633333333,8.1,9.7,164,975.08,6.0,99,6.81,0.0,1001.91,167.4
2019-10-20 05:40,50.6304333333333,-96.9807616666667,7.3,9.3,173,975.19,6.2,99,6.80,0.0,1002.02,167.4
2019-10-20 05:50,50.6304383333333,-96.9807766666667,7.2,8.8,170,975.19,6.2,99,6.81,0.0,1002.03,167.4
2019-10-20 06:00,50.6304366666667,-96.980765,7.5,8.9,168,975.17,6.0,99,6.82,0.0,1002.03,270.0
2019-10-20 06:10,50.6304316666667,-96.9807633333333,7.5,9.0,169,975.19,5.9,99,6.81,0.0,1002.06,270.0
2019-10-20 06:20,50.63043,-96.9807616666667,7.5,8.8,172,975.11,5.8,99,6.76,0.0,1001.99,270.0
2019-10-20 06:30,50.6304283333333,-96.9807633333333,7.2,8.4,172,975.16,5.7,99,6.71,0.0,1002.05,270.0
2019-10-20 06:40,50.6304283333333,-96.9807666666667,6.3,8.1,165,975.24,5.6,99,6.68,0.0,1002.14,270.0
2019-10-20 06:50,50.6304233333333,-96.9807716666667,6.0,7.6,170,975.33,5.6,99,6.67,0.0,1002.25,270.0
2019-10-20 07:00,50.6304266666667,-96.9807683333333,6.6,7.5,174,975.43,5.6,99,6.66,0.0,1002.35,360.0
2019-10-20 07:10,50.6304383333333,-96.9807666666667,7.4,10.4,179,975.56,5.8,98,6.65,0.0,1002.48,360.0
2019-10-20 07:20,50.6304333333333,-96.9807666666667,8.5,10.8,177,975.63,5.9,96,6.65,0.0,1002.56,360.0
2019-10-20 07:30,50.6304333333333,-96.980765,6.9,9.3,184,975.77,5.9,95,6.65,0.0,1002.69,360.0
2019-10-20 07:40,50.6304183333333,-96.9807633333333,8.5,12.1,200,975.89,6.1,92,6.65,0.0,1002.80,360.0
2019-10-20 07:50,50.63043,-96.98076,9.4,12.2,198,975.90,6.1,92,6.64,0.0,1002.82,360.0
2019-10-20 08:00,50.6304283333333,-96.9807583333333,9.5,14.4,195,975.90,6.2,90,6.64,0.0,1002.83,90.0
2019-10-20 08:10,50.6304266666667,-96.98076,8.1,10.7,193,975.92,6.1,90,6.64,0.0,1002.85,90.0
2019-10-20 08:20,50.6304266666667,-96.9807616666667,8.4,10.7,185,975.94,6.0,90,6.63,0.0,1002.88,90.0
2019-10-20 08:30,50.630425,-96.9807616666667,6.6,9.7,186,976.06,5.9,91,6.62,0.0,1003.02,90.0
2019-10-20 08:40,50.6304266666667,-96.9807616666667,3.7,5.3,191,976.20,5.8,91,6.61,0.0,1003.17,90.0
2019-10-20 08:50,50.6304266666667,-96.9807583333333,3.7,4.7,179,976.31,5.6,93,6.61,0.0,1003.29,90.0
2019-10-20 09:00,50.6304283333333,-96.9807566666667,4.3,5.4,186,976.37,5.5,95,6.61,0.0,1003.34,165.5
2019-10-20 09:10,50.63043,-96.9807583333333,4.6,6.3,193,976.34,5.4,94,6.63,0.0,1003.31,165.5
2019-10-20 09:20,50.6304316666667,-96.9807583333333,3.9,6.0,181,976.43,5.4,94,6.63,0.0,1003.41,165.5
2019-10-20 09:30,50.6304316666667,-96.9807583333333,2.9,4.0,150,976.56,5.2,97,6.62,0.0,1003.53,165.5
2019-10-20 09:40,50.6304316666667,-96.98076,3.5,4.7,166,976.67,5.2,96,6.62,0.0,1003.66,165.5
2019-10-20 09:50,50.6304366666667,-96.9807583333333,2.0,3.0,195,976.79,5.2,96,6.62,0.0,1003.77,165.5
2019-10-20 10:00,50.6304316666667,-96.9807583333333,2.7,4.6,173,976.84,5.1,96,6.63,0.0,1003.83,12.6
2019-10-20 10:10,50.63043,-96.9807266666667,3.3,4.3,162,976.97,5.0,96,6.62,0.0,1003.97,12.6
2019-10-20 10:20,50.6304183333333,-96.9807466666667,5.6,7.0,172,977.04,5.0,96,6.63,0.0,1004.05,12.6
2019-10-20 10:30,50.6304366666667,-96.980795,5.0,6.2,179,977.15,5.0,98,6.64,0.0,1004.18,12.6
2019-10-20 10:40,50.63043,-96.9807616666667,6.1,7.2,170,977.21,4.8,97,6.64,0.0,1004.25,12.6
2019-10-20 10:50,50.6304333333333,-96.98076,5.4,7.1,168,977.28,4.7,98,6.64,0.0,1004.33,12.6
2019-10-20 11:00,50.630435,-96.9807883333333,4.3,5.7,171,977.35,4.6,98,6.65,0.0,1004.41,296.7
2019-10-20 11:10,50.6304333333333,-96.98076,3.8,4.7,174,977.39,4.5,98,6.64,0.0,1004.46,296.7
2019-10-20 11:20,50.6304333333333,-96.9807583333333,5.0,6.2,169,977.37,4.4,99,6.64,0.0,1004.45,296.7
2019-10-20 11:30,50.6304316666667,-96.9807616666667,5.3,6.5,167,977.36,4.4,99,6.64,0.0,1004.45,296.7
2019-10-20 11:40,50.630425,-96.9807633333333,5.9,7.3,169,977.52,4.5,99,6.65,0.0,1004.61,296.7
2019-10-20 11:50,50.6304266666667,-96.9807666666667,7.5,9.0,165,977.63,4.4,99,6.65,0.0,1004.73,296.7
2019-10-20 12:00,50.6304216666667,-96.9807533333333,7.0,8.2,169,977.65,4.3,99,6.67,0.0,1004.76,131.7
2019-10-20 12:10,50.6304233333333,-96.980765,4.5,6.6,184,977.85,4.1,99,6.67,0.0,1004.97,131.7
2019-10-20 12:20,50.6304233333333,-96.9807633333333,4.5,6.0,188,978.03,4.0,99,6.67,0.0,1005.17,131.7
2019-10-20 12:30,50.6304333333333,-96.980785,3.1,4.2,201,978.11,3.8,99,6.64,0.0,1005.27,131.7
2019-10-20 12:40,50.630435,-96.9807933333333,3.4,4.3,197,978.22,3.7,99,6.64,0.0,1005.39,131.7
2019-10-20 12:50,50.6304316666667,-96.98079,4.0,5.1,188,978.33,3.6,99,6.65,0.0,1005.52,131.7
2019-10-20 13:00,50.630435,-96.980785,4.4,6.2,198,978.51,3.4,99,6.64,0.0,1005.71,286.8
2019-10-20 13:10,50.6304366666667,-96.9807833333333,4.0,5.1,187,978.59,3.2,99,6.63,0.0,1005.81,286.8
2019-10-20 13:20,50.6304116666667,-96.980775,4.4,5.6,165,978.63,3.3,99,6.63,0.0,1005.85,286.8
2019-10-20 13:30,50.630425,-96.9807716666667,5.3,6.3,168,978.75,3.3,99,6.61,0.0,1005.96,286.8
2019-10-20 13:40,50.6304533333333,-96.9807933333333,5.9,7.6,167,978.79,3.2,99,6.60,0.0,1006.01,286.8
2019-10-20 13:50,50.63043,-96.9807766666667,6.2,7.8,157,978.78,3.2,99,6.60,0.0,1006.01,286.8
2019-10-20 14:00,50.630415,-96.9807716666667,7.2,8.9,163,978.85,3.7,99,6.60,0.0,1006.06,152.6
2019-10-20 14:10,50.63042,-96.9807466666667,7.4,8.9,168,978.97,3.8,99,6.61,0.0,1006.19,152.6
2019-10-20 14:20,50.6304616666667,-96.9807816666667,6.9,8.6,172,979.04,3.8,99,6.60,0.0,1006.27,152.6
2019-10-20 14:30,50.6304233333333,-96.980735,6.4,8.1,177,979.16,4.0,98,6.60,0.0,1006.39,152.6
2019-10-20 14:40,50.6304433333333,-96.9808166666667,4.5,7.0,182,979.39,4.4,96,6.60,0.0,1006.61,152.6
2019-10-20 14:50,50.6304216666667,-96.9807716666667,4.0,6.4,204,979.48,4.9,91,6.60,0.0,1006.69,152.6
2019-10-20 15:00,50.6304066666667,-96.9807733333333,4.0,6.1,209,979.51,5.1,88,6.59,0.0,1006.71,211.1
2019-10-20 15:10,50.63041,-96.980765,5.4,6.5,199,979.61,5.2,88,6.59,0.0,1006.82,211.1
2019-10-20 15:20,50.630405,-96.9807766666667,5.1,6.2,181,979.64,5.1,90,6.59,0.0,1006.84,211.1
2019-10-20 15:30,50.6304133333333,-96.9807716666667,4.4,5.6,194,979.66,5.4,87,6.60,0.0,1006.86,211.1
2019-10-20 15:40,50.6304183333333,-96.9807666666667,4.1,5.4,201,979.81,5.7,87,6.60,0.0,1006.99,211.1
2019-10-20 15:50,50.6304316666667,-96.9807716666667,4.7,6.0,212,979.87,6.1,84,6.61,0.0,1007.02,211.1
2019-10-20 16:00,50.6304333333333,-96.980775,3.6,5.1,202,979.90,6.4,84,6.61,0.0,1007.03,119.2
2019-10-20 16:10,50.63043,-96.9807716666667,3.2,5.1,200,979.87,6.9,81,6.62,0.0,1006.97,119.2
2019-10-20 16:20,50.63043,-96.98077,3.3,4.3,170,979.89,7.0,82,6.61,0.0,1006.98,119.2
2019-10-20 16:30,50.6304316666667,-96.98077,3.2,4.1,136,979.96,7.3,80,6.61,0.0,1007.01,119.2
2019-10-20 16:40,50.6304316666667,-96.9807666666667,5.4,7.0,119,979.94,7.4,86,6.62,0.0,1006.97,119.2
2019-10-20 16:50,50.6304316666667,-96.9807633333333,5.9,6.8,123,979.91,6.9,88,6.63,0.0,1006.95,119.2
2019-10-20 17:00,50.6304516666667,-96.9807716666667,5.9,7.6,124,979.87,6.9,88,6.66,0.0,1006.90,360.0
2019-10-20 17:10,50.630445,-96.9807683333333,7.0,7.8,125,979.89,6.9,87,6.67,0.0,1006.93,360.0
2019-10-20 17:20,50.6304383333333,-96.9807633333333,7.9,8.9,134,979.96,6.6,85,6.67,0.0,1006.99,360.0
2019-10-20 17:30,50.6304366666667,-96.9807616666667,7.4,8.9,128,980.03,6.9,86,6.68,0.0,1007.04,360.0
2019-10-20 17:40,50.6304366666667,-96.98076,7.9,10.2,131,980.11,7.0,87,6.68,0.0,1007.10,360.0
2019-10-20 17:50,50.6304366666667,-96.9807633333333,9.4,11.2,135,980.20,6.6,90,6.69,0.0,1007.20,360.0
2019-10-20 18:00,50.630435,-96.9807633333333,8.8,10.1,136,980.19,6.7,92,6.71,0.0,1007.16,360.0
2019-10-20 18:10,50.63042,-96.980785,8.8,10.1,136,980.21,6.6,94,6.74,0.0,1007.17,360.0
2019-10-20 18:20,50.63043,-96.98076,7.9,9.2,137,980.26,6.7,95,6.76,0.0,1007.21,360.0
2019-10-20 18:30,50.630435,-96.980765,8.6,9.7,136,980.16,6.8,95,6.77,0.0,1007.10,360.0
2019-10-20 18:40,50.6304283333333,-96.980765,8.9,10.0,139,980.18,7.0,93,6.78,0.0,1007.14,360.0
2019-10-20 18:50,50.6304266666667,-96.980765,10.1,11.3,144,980.32,7.5,92,6.78,0.0,1007.25,360.0
2019-10-20 19:00,50.6304283333333,-96.980765,8.7,10.7,151,980.32,8.4,87,6.78,0.0,1007.20,167.4
2019-10-20 19:10,50.63043,-96.9807633333333,8.2,11.2,156,980.19,9.0,82,6.79,0.0,1007.06,167.4
2019-10-20 19:20,50.6304316666667,-96.9807733333333,7.7,10.8,152,980.19,9.5,79,6.79,0.0,1007.02,167.4
2019-10-20 19:30,50.6304316666667,-96.9807683333333,8.1,11.1,157,980.30,9.8,79,6.80,0.0,1007.11,167.4
2019-10-20 19:40,50.630425,-96.98075,8.5,11.2,162,980.41,9.9,78,6.81,0.0,1007.24,167.4
2019-10-20 19:50,50.63043,-96.9807633333333,10.6,13.1,170,980.46,11.2,70,6.83,0.0,1007.23,167.4
2019-10-20 20:00,50.6304283333333,-96.980765,10.6,13.4,170,980.52,11.6,69,6.86,0.0,1007.27,360.0
2019-10-20 20:10,50.6304316666667,-96.9807633333333,9.3,11.7,153,980.55,11.4,70,6.85,0.0,1007.30,360.0
2019-10-20 20:20,50.6304483333333,-96.9807533333333,9.8,11.2,140,980.49,10.7,72,6.86,0.0,1007.27,360.0
2019-10-20 20:30,50.6304433333333,-96.9807666666667,9.0,10.6,142,980.51,10.5,73,6.88,0.0,1007.30,360.0
2019-10-20 20:40,50.6304383333333,-96.9807616666667,4.6,8.9,167,980.61,11.1,67,6.90,0.0,1007.35,360.0
2019-10-20 20:50,50.6304333333333,-96.9807633333333,7.0,9.3,224,980.74,13.1,55,6.91,0.0,1007.34,360.0
2019-10-20 21:00,50.6304283333333,-96.9807666666667,7.0,9.9,220,980.85,13.5,53,6.90,0.0,1007.41,360.0
2019-10-20 21:10,50.6304283333333,-96.9807683333333,6.8,9.1,197,980.93,13.0,59,6.90,0.0,1007.49,360.0
2019-10-20 21:20,50.6304033333333,-96.980755,7.3,9.6,190,981.04,12.6,61,6.93,0.0,1007.61,360.0
2019-10-20 21:30,50.6304216666667,-96.980765,7.8,10.2,181,981.10,12.3,62,6.97,0.0,1007.68,360.0
2019-10-20 21:40,50.6304283333333,-96.9807666666667,7.6,10.2,180,981.23,12.0,63,6.98,0.0,1007.76,360.0
2019-10-20 21:50,50.6304333333333,-96.9807633333333,7.0,9.1,181,981.34,11.8,63,6.99,0.0,1007.87,360.0
2019-10-20 22:00,50.6304266666667,-96.980765,7.7,9.3,176,981.45,11.6,63,7.00,0.0,1007.99,0.0
2019-10-20 22:10,50.63043,-96.9807633333333,7.9,10.4,182,981.48,11.5,63,7.01,0.0,1008.07,0.0
2019-10-20 22:20,50.63043,-96.980765,7.4,9.3,184,981.59,11.4,63,7.03,0.0,1008.19,0.0
2019-10-20 22:30,50.630425,-96.9807633333333,6.7,8.4,191,981.66,11.4,62,7.05,0.0,1008.23,0.0
2019-10-20 22:40,50.630425,-96.9807633333333,6.6,8.3,199,981.74,11.4,62,7.07,0.0,1008.23,0.0
2019-10-20 22:50,50.6304233333333,-96.9807633333333,6.7,8.5,201,981.81,11.3,62,7.09,0.0,1008.28,0.0
2019-10-20 23:00,50.6304216666667,-96.9807633333333,6.0,7.9,196,981.88,11.2,62,7.11,0.0,1008.39,142.0
2019-10-20 23:10,50.6304216666667,-96.9807633333333,5.1,6.4,191,981.95,10.9,63,7.10,0.0,1008.49,142.0
2019-10-20 23:20,50.6304233333333,-96.9807633333333,4.8,6.0,179,981.99,10.6,65,7.10,0.0,1008.56,142.0
2019-10-20 23:30,50.6304233333333,-96.9807633333333,5.5,6.7,181,982.02,10.3,68,7.12,0.0,1008.62,142.0
2019-10-20 23:40,50.6304233333333,-96.9807633333333,5.8,6.8,185,982.12,10.1,72,7.15,0.0,1008.74,142.0
2019-10-20 23:50,50.630425,-96.9807633333333,5.5,7.3,188,982.19,10.0,75,7.16,0.0,1008.82,142.0
